[[{"header":{"parameterUnit":"m.s-1","parameterCategory":1,"la1":30.2991,"la2":30.254,"lo1":-89.0895,"lo2":-89.0444,"dy":0.0017,"dx":0.0017,"nx":28,"ny":28,"refTime":"2024-07-18T09:00:00:Z","depth":0,"parameterNumber":2,"parameterNumberName":"U-component_of_WINDS"},"data":[0,0,0,0,0,0,0,0,0,0,0,0,0,0,0,0,0,0,0,0,0,0,0,0,0,0,0,0,0,0,0,0,0,0,0,0,0,0,0,0,0,0,0,0,0,0,0,0,0,0,0,0,0,0,0,0,0,0,2.3022,2.3022,0,2.3056,2.3056,2.3057,2.3071,2.3071,2.3071,2.3071,2.3103,2.3104,2.3105,0,0,0,0,0,0,0,0,0,0,0,0,0,2.2967,2.2968,2.3022,2.3022,2.3023,2.3056,2.3056,2.3057,2.3071,2.3071,2.3071,2.3071,2.3103,2.3104,2.3105,0,0,0,0,0,0,0,0,0,0,0,0,0,2.2995,2.2969,2.3022,2.3034,2.3035,2.3056,2.3056,2.3057,2.3071,2.3071,2.3071,2.3071,2.3103,2.3104,2.3105,2.3116,0,0,2.311,2.311,0,0,0,0,0,0,0,0,2.2993,2.2997,2.3031,2.3033,2.3035,2.3059,2.3049,2.3076,2.3071,2.3057,2.3071,2.3071,2.3089,2.3091,2.3098,2.3117,2.3119,2.311,2.3111,2.3111,2.3112,0,0,0,0,0,0,0,2.2991,2.2996,2.3035,2.3032,2.3034,2.3037,2.3041,2.3054,2.3073,2.3058,2.306,2.3063,2.3089,2.3096,2.3098,2.3119,2.311,2.3111,2.3112,2.3112,2.3149,2.315,0,0,0,0,0,0,2.2988,2.2994,2.3034,2.3036,2.3013,2.3038,2.3042,2.3051,2.3073,2.3076,2.3063,2.3064,2.3094,2.3097,2.31,2.3114,2.3111,2.3113,2.3113,2.3149,2.315,2.315,0,0,0,0,0,0,2.2987,2.2991,2.3033,2.3015,2.3021,2.3039,2.3049,2.3052,2.3059,2.3077,2.308,2.3067,2.3094,2.3098,2.3112,2.3115,2.3113,2.3114,2.3149,2.3149,2.315,2.3141,0,0,0,0,0,0,2.2985,2.2991,2.2995,2.3015,2.3022,2.3045,2.3049,2.3053,2.3061,2.3062,2.3081,2.3084,2.3094,2.311,2.3113,2.3117,2.3116,2.3149,2.3149,2.315,2.3141,2.3141,2.3141,0,0,0,0,0,2.2983,2.2991,2.2995,2.3,2.3028,2.3045,2.3049,2.3061,2.3062,2.3066,2.3078,2.3083,2.3114,2.3111,2.3115,2.3119,2.3149,2.3149,2.315,2.3141,2.3141,2.3141,0,0,0,0,0,0,2.297,2.2994,2.2999,2.3014,2.3027,2.3047,2.3053,2.306,2.3073,2.3073,2.3087,2.3091,2.3104,2.3113,2.3109,2.313,2.3132,2.3133,2.3124,2.3124,2.3124,2.3121,2.3117,0,0,0,0,0,2.2969,2.2981,2.3001,2.3012,2.3019,2.3035,2.3043,2.3051,2.3065,2.3071,2.3083,2.3097,2.3109,2.3117,2.313,2.3143,2.3147,2.3147,2.3147,2.3147,2.3148,2.3155,2.3156,2.3151,2.3151,2.3151,0,0,2.2966,2.2981,2.2988,2.301,2.3022,2.3034,2.304,2.3052,2.3061,2.3073,2.3087,2.3097,2.3112,2.3126,2.3132,2.3134,2.315,2.3147,2.3147,2.3148,2.3156,2.3156,2.3156,2.3151,2.3151,2.3151,0,0,2.2969,2.2981,2.2992,2.3003,2.3021,2.3032,2.3034,2.3053,2.3061,2.3075,2.3084,2.3095,2.3116,2.3127,2.3135,2.3142,2.3148,2.3146,2.3145,2.3152,2.3152,2.3153,2.3155,2.3156,2.3146,2.3146,2.3146,0,2.2963,2.2983,2.2996,2.3009,2.3018,2.303,2.3041,2.3051,2.3071,2.3077,2.3079,2.3106,2.3117,2.3134,2.3135,2.3142,2.3145,2.3144,2.3151,2.3152,2.3152,2.3155,2.3156,2.3146,2.3146,2.3146,2.3146,0,2.2975,2.2989,2.2995,2.3016,2.3026,2.3037,2.3052,2.3061,2.3068,2.3078,2.3093,2.3107,2.3123,2.3128,2.3135,2.3145,2.3145,2.3149,2.315,2.3152,2.3155,2.3156,2.3146,2.3146,2.3146,2.3146,0,0,2.297,2.2998,2.3,2.301,2.303,2.3041,2.3052,2.3069,2.3076,2.3089,2.31,2.3118,2.3121,2.313,2.3139,2.3145,2.315,2.3148,2.3148,2.3148,2.3162,2.316,2.316,2.3154,2.3154,2.3154,2.3161,0,2.2975,2.2998,2.301,2.3027,2.304,2.3051,2.3062,2.3075,2.3085,2.3097,2.3107,2.312,2.3124,2.3129,2.3136,2.3148,2.3153,2.3147,2.3163,2.3163,2.3159,2.3162,2.3159,2.3165,2.3162,2.3162,2.3162,0,2.2984,2.2998,2.3017,2.3036,2.3042,2.3051,2.3067,2.3078,2.3093,2.31,2.3111,2.3119,2.3132,2.3133,2.315,2.3146,2.3153,2.316,2.316,2.3162,2.3163,2.3164,2.3167,2.3168,2.3164,2.3164,2.3164,0,2.2978,2.3002,2.3016,2.3024,2.3047,2.3053,2.3063,2.3078,2.3087,2.3101,2.3107,2.3122,2.313,2.3141,2.3153,2.3152,2.3169,2.3171,2.3175,2.3174,2.3177,2.3177,2.3182,2.3182,2.3182,2.3182,2.3182,0,2.2982,2.2993,2.3014,2.3023,2.3035,2.305,2.3061,2.3072,2.3086,2.3096,2.3107,2.3116,2.3132,2.3143,2.3153,2.3166,2.3169,2.3175,2.3177,2.3174,2.3173,2.3179,2.3179,2.3182,2.3182,2.3182,2.3182,0,2.2978,2.2992,2.3009,2.3029,2.3035,2.3043,2.3061,2.3069,2.308,2.3094,2.3097,2.3114,2.3128,2.3142,2.316,2.3166,2.3179,2.3182,2.3174,2.3176,2.3179,2.3178,2.3187,2.3189,2.3188,2.3188,2.3188,0,2.2979,2.2988,2.301,2.3018,2.3028,2.3041,2.3051,2.3065,2.3075,2.3093,2.3099,2.3115,2.3127,2.3149,2.3163,2.3177,2.318,2.3182,2.3182,2.3179,2.318,2.318,2.3181,2.3182,2.3182,2.3182,2.3182,0,2.2981,2.2988,2.3002,2.3018,2.3029,2.3042,2.3056,2.3062,2.3079,2.3089,2.3104,2.3114,2.3133,2.3148,2.3164,2.3173,2.318,2.3182,2.3184,2.318,2.3175,2.3178,2.3174,2.3182,2.3182,2.3182,2.3182,2.3182,2.298,2.2988,2.3005,2.302,2.3032,2.3045,2.3054,2.3066,2.3079,2.3097,2.3104,2.3119,2.3135,2.3157,2.3166,2.3178,2.3179,2.3182,2.3182,2.3183,2.3182,2.3173,2.3181,2.3181,2.3181,2.3181,2.3181,0,2.2982,2.2993,2.3007,2.3026,2.3038,2.3044,2.306,2.3069,2.3082,2.3096,2.3109,2.3126,2.3141,2.3155,2.3171,2.3177,2.3181,2.318,2.318,2.3182,2.318,2.3177,2.3177,2.3177,2.3177,2.3177,2.3177,2.3177,2.2984,2.2999,2.3008,2.3029,2.304,2.3056,2.3064,2.3076,2.3087,2.3106,2.3118,2.3128,2.3142,2.3159,2.3172,2.3176,2.3181,2.318,2.3185,2.3182,2.3182,2.3182,2.318,2.3181,2.3181,2.3186,2.3186,2.3186]},{"header":{"parameterUnit":"m.s-1","parameterCategory":1,"la1":30.2991,"la2":30.254,"lo1":-89.0895,"lo2":-89.0444,"dy":0.0017,"dx":0.0017,"nx":28,"ny":28,"refTime":"2024-07-18T09:00:00:Z","depth":0,"parameterNumber":3,"parameterNumberName":"V-component_of_WINDS"},"data":[0,0,0,0,0,0,0,0,0,0,0,0,0,0,0,0,0,0,0,0,0,0,0,0,0,0,0,0,0,0,0,0,0,0,0,0,0,0,0,0,0,0,0,0,0,0,0,0,0,0,0,0,0,0,0,0,0,0,-0.0221,-0.0221,0,-0.026,-0.0261,-0.0261,-0.0266,-0.0265,-0.0265,-0.0265,-0.0307,-0.0308,-0.031,0,0,0,0,0,0,0,0,0,0,0,0,0,-0.0152,-0.0153,-0.0221,-0.0221,-0.0222,-0.026,-0.0261,-0.0261,-0.0266,-0.0265,-0.0265,-0.0264,-0.0306,-0.0308,-0.031,0,0,0,0,0,0,0,0,0,0,0,0,0,-0.0186,-0.0154,-0.0221,-0.0229,-0.023,-0.026,-0.0261,-0.0262,-0.0266,-0.0265,-0.0265,-0.0264,-0.0306,-0.0308,-0.031,-0.0336,0,0,-0.0317,-0.0318,0,0,0,0,0,0,0,0,-0.0184,-0.0188,-0.0227,-0.0228,-0.0229,-0.0257,-0.0252,-0.0287,-0.0266,-0.0252,-0.0265,-0.0264,-0.0291,-0.0294,-0.0303,-0.0338,-0.034,-0.0317,-0.0318,-0.0319,-0.032,0,0,0,0,0,0,0,-0.0181,-0.0187,-0.0237,-0.0228,-0.0229,-0.0231,-0.0235,-0.0259,-0.0275,-0.0253,-0.0254,-0.0258,-0.0291,-0.0301,-0.0304,-0.034,-0.0317,-0.0319,-0.032,-0.0321,-0.04,-0.04,0,0,0,0,0,0,-0.0177,-0.0185,-0.0235,-0.0238,-0.0205,-0.0233,-0.0237,-0.0249,-0.0274,-0.0277,-0.0259,-0.0258,-0.0297,-0.0301,-0.0306,-0.0338,-0.0319,-0.0321,-0.0323,-0.0399,-0.04,-0.0401,0,0,0,0,0,0,-0.0176,-0.0182,-0.0234,-0.0211,-0.0218,-0.0235,-0.0248,-0.025,-0.026,-0.0278,-0.0281,-0.0265,-0.0297,-0.0302,-0.0328,-0.034,-0.0322,-0.0324,-0.0398,-0.0399,-0.04,-0.0403,0,0,0,0,0,0,-0.0174,-0.0181,-0.0191,-0.0211,-0.0219,-0.0255,-0.0248,-0.0251,-0.0263,-0.0263,-0.0285,-0.0288,-0.0297,-0.0325,-0.0331,-0.0343,-0.0326,-0.0397,-0.0399,-0.04,-0.0402,-0.0405,-0.0406,0,0,0,0,0,-0.0171,-0.019,-0.0191,-0.0197,-0.0231,-0.0256,-0.026,-0.0269,-0.0264,-0.0274,-0.0286,-0.0288,-0.0338,-0.0328,-0.0334,-0.0347,-0.0396,-0.0398,-0.04,-0.0402,-0.0404,-0.0406,0,0,0,0,0,0,-0.017,-0.0193,-0.0194,-0.022,-0.0236,-0.0256,-0.0269,-0.0272,-0.029,-0.0289,-0.03,-0.0305,-0.0331,-0.0341,-0.033,-0.0374,-0.0367,-0.037,-0.0366,-0.0369,-0.037,-0.0367,-0.0328,0,0,0,0,0,-0.0173,-0.019,-0.0209,-0.023,-0.0238,-0.0252,-0.0264,-0.0269,-0.0286,-0.0293,-0.0307,-0.0325,-0.0344,-0.0357,-0.0376,-0.0404,-0.041,-0.0416,-0.0418,-0.042,-0.0422,-0.0439,-0.0442,-0.0406,-0.0406,-0.0406,0,0,-0.0179,-0.0193,-0.0204,-0.0231,-0.0244,-0.0262,-0.0258,-0.0278,-0.0292,-0.0296,-0.0322,-0.0333,-0.0353,-0.038,-0.0393,-0.039,-0.0434,-0.0422,-0.0423,-0.0425,-0.0441,-0.0445,-0.0448,-0.0407,-0.0407,-0.0407,0,0,-0.0199,-0.0211,-0.0231,-0.0244,-0.0264,-0.0273,-0.0278,-0.0298,-0.0306,-0.0331,-0.0335,-0.0353,-0.0386,-0.0401,-0.0413,-0.044,-0.0442,-0.0446,-0.0456,-0.0472,-0.0475,-0.0478,-0.0488,-0.0492,-0.0448,-0.0448,-0.0448,0,-0.0204,-0.0231,-0.024,-0.026,-0.0273,-0.0277,-0.0297,-0.031,-0.0335,-0.0344,-0.034,-0.0383,-0.0397,-0.0428,-0.0435,-0.0444,-0.045,-0.0443,-0.0474,-0.0477,-0.0479,-0.0489,-0.0493,-0.0448,-0.0448,-0.0448,-0.0448,0,-0.0237,-0.0256,-0.027,-0.0294,-0.0307,-0.0327,-0.034,-0.0353,-0.0358,-0.0368,-0.0395,-0.0412,-0.0435,-0.0443,-0.0448,-0.0476,-0.0473,-0.0472,-0.0465,-0.0483,-0.0493,-0.0497,-0.0449,-0.0449,-0.0449,-0.0449,0,0,-0.0257,-0.0286,-0.0291,-0.0303,-0.0325,-0.0341,-0.0362,-0.0384,-0.0395,-0.0413,-0.0431,-0.046,-0.0459,-0.0472,-0.0479,-0.0493,-0.0515,-0.049,-0.0491,-0.0494,-0.0548,-0.0549,-0.0553,-0.0516,-0.0517,-0.0518,-0.0546,0,-0.028,-0.0317,-0.0326,-0.0357,-0.0376,-0.0381,-0.04,-0.0416,-0.0426,-0.0444,-0.0456,-0.0477,-0.0473,-0.0482,-0.0496,-0.0509,-0.0526,-0.0507,-0.0535,-0.0535,-0.053,-0.0558,-0.0559,-0.0585,-0.055,-0.0551,-0.0551,0,-0.0312,-0.033,-0.0363,-0.0385,-0.0393,-0.0409,-0.0431,-0.0448,-0.0467,-0.0474,-0.0489,-0.0495,-0.0518,-0.051,-0.0542,-0.0529,-0.0541,-0.055,-0.0551,-0.0554,-0.0544,-0.0563,-0.0594,-0.0598,-0.0557,-0.0556,-0.0556,0,-0.0324,-0.0357,-0.0381,-0.0391,-0.0416,-0.0428,-0.0439,-0.0457,-0.0471,-0.049,-0.0499,-0.0521,-0.0533,-0.055,-0.0562,-0.0555,-0.0594,-0.0587,-0.0601,-0.0601,-0.0609,-0.0609,-0.0643,-0.0616,-0.0616,-0.0616,-0.0616,0,-0.035,-0.037,-0.0387,-0.0402,-0.0426,-0.0437,-0.046,-0.0471,-0.0488,-0.0506,-0.0512,-0.0529,-0.0544,-0.0563,-0.0573,-0.0599,-0.0604,-0.0611,-0.0613,-0.0611,-0.061,-0.0619,-0.0617,-0.0617,-0.0617,-0.0617,-0.0616,0,-0.0367,-0.0379,-0.0406,-0.0428,-0.0434,-0.0451,-0.047,-0.0485,-0.0496,-0.0519,-0.0525,-0.0543,-0.0566,-0.0579,-0.0609,-0.0615,-0.0644,-0.0646,-0.0638,-0.0639,-0.0653,-0.0652,-0.0695,-0.0701,-0.0669,-0.067,-0.067,0,-0.0382,-0.0398,-0.0422,-0.0434,-0.0445,-0.0465,-0.0479,-0.0491,-0.0505,-0.0529,-0.0541,-0.0565,-0.0584,-0.0622,-0.0637,-0.066,-0.0662,-0.0676,-0.0666,-0.0663,-0.0664,-0.0663,-0.0665,-0.0678,-0.0678,-0.0678,-0.0678,0,-0.0409,-0.0414,-0.0433,-0.0455,-0.0471,-0.0488,-0.0506,-0.0516,-0.0531,-0.0547,-0.057,-0.0585,-0.0616,-0.0639,-0.0664,-0.0676,-0.068,-0.0682,-0.0686,-0.0684,-0.0679,-0.0682,-0.0643,-0.068,-0.068,-0.068,-0.068,-0.068,-0.0426,-0.0441,-0.046,-0.0481,-0.0496,-0.0512,-0.0528,-0.0541,-0.0561,-0.0586,-0.0592,-0.0617,-0.0638,-0.0671,-0.0684,-0.0704,-0.0702,-0.0709,-0.0711,-0.0712,-0.0713,-0.0675,-0.0709,-0.0709,-0.0709,-0.0709,-0.0709,0,-0.0453,-0.0466,-0.0486,-0.051,-0.0527,-0.0529,-0.0549,-0.0563,-0.0585,-0.0603,-0.0623,-0.0651,-0.0674,-0.0692,-0.0716,-0.0729,-0.0732,-0.0735,-0.0734,-0.0737,-0.0713,-0.0707,-0.0733,-0.0733,-0.0733,-0.0733,-0.0733,-0.0733,-0.047,-0.0495,-0.0503,-0.0536,-0.0549,-0.0573,-0.0584,-0.06,-0.0615,-0.0646,-0.0665,-0.0676,-0.0695,-0.0721,-0.0742,-0.0747,-0.0756,-0.0759,-0.0765,-0.0742,-0.0739,-0.0737,-0.0731,-0.0761,-0.0761,-0.0787,-0.0788,-0.0788]}]]